DLH34J EDDF-LPPT

Flight info

Callsign DLH34J
Flight time N/A
Altitude 37000
Route SOBRA2L/18 SOBRA Y180 DIK UN857 TOLVU DCT RAPOR DCT GIMER/N0433F350 DCT ESTOC UT300 PON UN872 GODIX/N0411F310 UN872 DIDAK/N0439F370 UN872 TERPO/N0429F350 UN872 ERIGA UZ218 FUJTI/N0438F370 DCT ATLEN DCT ABUPI DCT XAMAX
Aircraft A320/M-SDE2E3FGIJ1LORWXYZ/HB1

Departure

Time N/A
Airport Frankfurt Main Airport (EDDF)

Arrival

Time 2026-05-06 20:54
Airport Lisbon Humberto Delgado Airport (LPPT)
Time Latitude Longitude Altitude Speed Heading
2026-05-06 19:53 43.51688 -5.79716 37044 ft 424 kts 213°
2026-05-06 19:53 43.49167 -5.81834 37044 ft 424 kts 213°
2026-05-06 19:53 43.44130 -5.86072 37037 ft 424 kts 213°
2026-05-06 19:54 43.39917 -5.89614 37040 ft 424 kts 213°
2026-05-06 19:54 43.34912 -5.93806 37042 ft 424 kts 213°
2026-05-06 19:55 43.29880 -5.98021 37046 ft 423 kts 213°
2026-05-06 19:55 43.24847 -6.02220 37036 ft 423 kts 213°
2026-05-06 19:56 43.19817 -6.06411 37044 ft 423 kts 213°
2026-05-06 19:56 43.14793 -6.10597 37042 ft 423 kts 213°
2026-05-06 19:57 43.09766 -6.14766 37035 ft 422 kts 212°
2026-05-06 19:57 43.04742 -6.18924 37029 ft 422 kts 212°
2026-05-06 19:58 42.99717 -6.23060 37024 ft 421 kts 212°
2026-05-06 19:58 42.94707 -6.27194 37018 ft 421 kts 212°
2026-05-06 19:59 42.89702 -6.31325 37008 ft 420 kts 213°
2026-05-06 19:59 42.84695 -6.35447 37001 ft 420 kts 212°
2026-05-06 20:00 42.79688 -6.39550 36993 ft 419 kts 212°
2026-05-06 20:00 42.74692 -6.43641 37001 ft 419 kts 212°
2026-05-06 20:01 42.69700 -6.47724 37001 ft 418 kts 212°
2026-05-06 20:01 42.64710 -6.51797 36986 ft 418 kts 212°
2026-05-06 20:02 42.59715 -6.55860 36985 ft 418 kts 212°
2026-05-06 20:02 42.54722 -6.59920 36977 ft 418 kts 212°
2026-05-06 20:03 42.49762 -6.63939 36973 ft 418 kts 212°
2026-05-06 20:03 42.44765 -6.67986 36969 ft 418 kts 212°
2026-05-06 20:04 42.39772 -6.72034 36965 ft 418 kts 212°
2026-05-06 20:04 42.34774 -6.76070 36973 ft 418 kts 212°
2026-05-06 20:05 42.29774 -6.80095 36968 ft 418 kts 212°
2026-05-06 20:05 42.24771 -6.84104 36972 ft 418 kts 212°
2026-05-06 20:06 42.19768 -6.88112 36963 ft 418 kts 212°
2026-05-06 20:06 42.14763 -6.92120 36960 ft 418 kts 212°
2026-05-06 20:07 42.09760 -6.96119 36969 ft 418 kts 212°
2026-05-06 20:07 42.04754 -7.00114 36968 ft 418 kts 212°
2026-05-06 20:08 41.99749 -7.04099 36968 ft 418 kts 212°
2026-05-06 20:08 41.94741 -7.08074 36951 ft 418 kts 212°
2026-05-06 20:09 41.89735 -7.12040 36956 ft 418 kts 212°
2026-05-06 20:09 41.84732 -7.15999 36951 ft 417 kts 212°
2026-05-06 20:10 41.79731 -7.19957 36948 ft 417 kts 212°
2026-05-06 20:10 41.74730 -7.23907 36939 ft 417 kts 212°
2026-05-06 20:11 41.69714 -7.27825 36938 ft 417 kts 211°
2026-05-06 20:11 41.64684 -7.31713 36945 ft 417 kts 211°
2026-05-06 20:12 41.59656 -7.35604 36944 ft 417 kts 211°
2026-05-06 20:12 41.54634 -7.39494 36947 ft 417 kts 211°
2026-05-06 20:13 41.49612 -7.43380 36936 ft 417 kts 212°
2026-05-06 20:13 41.44594 -7.47247 36947 ft 417 kts 211°
2026-05-06 20:14 41.39575 -7.51113 36948 ft 416 kts 212°
2026-05-06 20:14 41.34563 -7.54969 36947 ft 416 kts 211°
2026-05-06 20:15 41.29548 -7.58816 36941 ft 416 kts 212°
2026-05-06 20:15 41.24571 -7.62628 36956 ft 416 kts 211°
2026-05-06 20:16 41.19580 -7.66439 36951 ft 417 kts 211°
2026-05-06 20:16 41.14558 -7.70277 36950 ft 417 kts 211°
2026-05-06 20:17 41.09524 -7.74115 36951 ft 417 kts 211°
2026-05-06 20:17 41.04490 -7.77933 36945 ft 417 kts 211°
2026-05-06 20:18 40.99459 -7.81751 36949 ft 417 kts 212°
2026-05-06 20:18 40.94435 -7.85566 36952 ft 417 kts 212°
2026-05-06 20:19 40.89406 -7.89373 36952 ft 416 kts 211°
2026-05-06 20:19 40.84414 -7.93143 36950 ft 416 kts 211°
2026-05-06 20:20 40.79386 -7.96925 36957 ft 416 kts 211°
2026-05-06 20:20 40.74363 -8.00700 36959 ft 415 kts 211°
2026-05-06 20:21 40.69346 -8.04470 36964 ft 415 kts 211°
2026-05-06 20:21 40.64330 -8.08236 36963 ft 415 kts 211°
2026-05-06 20:22 40.59317 -8.11994 36956 ft 414 kts 212°
2026-05-06 20:22 40.54307 -8.15730 36962 ft 414 kts 211°
2026-05-06 20:23 40.49283 -8.19480 36792 ft 419 kts 211°
2026-05-06 20:23 40.46749 -8.21370 36532 ft 418 kts 211°
2026-05-06 20:23 40.44232 -8.23244 36279 ft 415 kts 211°
2026-05-06 20:24 40.41730 -8.25105 36023 ft 412 kts 211°
2026-05-06 20:24 40.39248 -8.26946 35779 ft 408 kts 211°
2026-05-06 20:24 40.36781 -8.28771 35524 ft 404 kts 211°
2026-05-06 20:24 40.34348 -8.30570 35093 ft 400 kts 211°
2026-05-06 20:25 40.31937 -8.32351 34618 ft 396 kts 211°
2026-05-06 20:25 40.29554 -8.34117 34125 ft 393 kts 211°
2026-05-06 20:25 40.27182 -8.35874 33615 ft 390 kts 211°
2026-05-06 20:25 40.24831 -8.37613 33150 ft 386 kts 211°
2026-05-06 20:26 40.22511 -8.39330 32686 ft 381 kts 211°
2026-05-06 20:26 40.20244 -8.41006 32224 ft 377 kts 211°
2026-05-06 20:26 40.17969 -8.42683 31778 ft 373 kts 210°
2026-05-06 20:26 40.15718 -8.44337 31337 ft 369 kts 210°
2026-05-06 20:27 40.13463 -8.45992 30994 ft 363 kts 210°
2026-05-06 20:27 40.11287 -8.47581 30635 ft 364 kts 210°
2026-05-06 20:27 40.09074 -8.49190 30268 ft 364 kts 210°
2026-05-06 20:27 40.06866 -8.50792 29882 ft 362 kts 210°
2026-05-06 20:28 40.04670 -8.52383 29453 ft 360 kts 210°
2026-05-06 20:28 40.02483 -8.53965 29019 ft 358 kts 209°
2026-05-06 20:28 40.00277 -8.55561 28603 ft 357 kts 209°
2026-05-06 20:28 39.98114 -8.57125 28184 ft 355 kts 209°
2026-05-06 20:29 39.95987 -8.58667 27764 ft 354 kts 210°
2026-05-06 20:29 39.93838 -8.60226 27231 ft 353 kts 210°
2026-05-06 20:29 39.91698 -8.61779 26705 ft 351 kts 210°
2026-05-06 20:29 39.89570 -8.63321 26190 ft 350 kts 210°
2026-05-06 20:30 39.87442 -8.64855 25681 ft 348 kts 210°
2026-05-06 20:30 39.83219 -8.67901 24704 ft 346 kts 209°
2026-05-06 20:30 39.81118 -8.69417 24225 ft 345 kts 209°
2026-05-06 20:31 39.79026 -8.70926 23757 ft 344 kts 209°
2026-05-06 20:31 39.76938 -8.72430 23252 ft 343 kts 209°
2026-05-06 20:31 39.74853 -8.73930 22701 ft 342 kts 209°
2026-05-06 20:31 39.72777 -8.75421 22157 ft 342 kts 209°
2026-05-06 20:32 39.70713 -8.76902 21617 ft 335 kts 209°
2026-05-06 20:32 39.68699 -8.78348 21084 ft 327 kts 210°
2026-05-06 20:32 39.66722 -8.79766 20572 ft 322 kts 209°
2026-05-06 20:32 39.64770 -8.81165 20065 ft 319 kts 209°
2026-05-06 20:33 39.62825 -8.82559 19569 ft 320 kts 210°
2026-05-06 20:33 39.60872 -8.83959 19091 ft 321 kts 210°
2026-05-06 20:33 39.58917 -8.85360 18602 ft 322 kts 209°
2026-05-06 20:33 39.56954 -8.86766 18108 ft 323 kts 209°
2026-05-06 20:34 39.54988 -8.88170 17557 ft 321 kts 210°
2026-05-06 20:34 39.53058 -8.89543 17117 ft 314 kts 210°
2026-05-06 20:34 39.51149 -8.90901 16720 ft 313 kts 209°
2026-05-06 20:34 39.49273 -8.92236 16336 ft 311 kts 209°
2026-05-06 20:35 39.47357 -8.93599 15947 ft 310 kts 210°
2026-05-06 20:35 39.45500 -8.94922 15570 ft 309 kts 210°
2026-05-06 20:35 39.43622 -8.96257 15197 ft 308 kts 210°
2026-05-06 20:35 39.41749 -8.97589 14828 ft 307 kts 210°
2026-05-06 20:36 39.39885 -8.98916 14471 ft 306 kts 210°
2026-05-06 20:36 39.38022 -9.00243 14097 ft 305 kts 210°
2026-05-06 20:36 39.36139 -9.01586 13726 ft 304 kts 210°
2026-05-06 20:36 39.34287 -9.02904 13323 ft 304 kts 210°
2026-05-06 20:37 39.32467 -9.04196 13008 ft 301 kts 210°
2026-05-06 20:37 39.30653 -9.05482 12785 ft 294 kts 209°
2026-05-06 20:37 39.28865 -9.06746 12444 ft 292 kts 209°
2026-05-06 20:37 39.27085 -9.08000 12089 ft 291 kts 209°
2026-05-06 20:38 39.25309 -9.09251 11714 ft 291 kts 210°
2026-05-06 20:38 39.23538 -9.10500 11338 ft 290 kts 210°
2026-05-06 20:38 39.21773 -9.11748 11006 ft 288 kts 210°
2026-05-06 20:38 39.20017 -9.12987 10646 ft 287 kts 210°
2026-05-06 20:39 39.18833 -9.13824 10408 ft 287 kts 210°
2026-05-06 20:39 39.17087 -9.15060 10038 ft 286 kts 210°
2026-05-06 20:39 39.15347 -9.16292 9675 ft 285 kts 210°
2026-05-06 20:39 39.13618 -9.17515 9312 ft 283 kts 210°
2026-05-06 20:40 39.11898 -9.18731 8911 ft 281 kts 209°
2026-05-06 20:40 39.10185 -9.19941 8525 ft 280 kts 209°
2026-05-06 20:40 39.08480 -9.21143 8130 ft 279 kts 209°
2026-05-06 20:40 39.06785 -9.22333 7957 ft 277 kts 209°
2026-05-06 20:41 39.05087 -9.23525 7970 ft 279 kts 209°
2026-05-06 20:41 39.03384 -9.24721 7975 ft 279 kts 209°
2026-05-06 20:41 39.01706 -9.25897 7974 ft 279 kts 209°
2026-05-06 20:41 38.99973 -9.27110 7975 ft 279 kts 209°
2026-05-06 20:42 38.98260 -9.28221 7977 ft 279 kts 205°
2026-05-06 20:42 38.96487 -9.29228 7977 ft 278 kts 204°
2026-05-06 20:42 38.94712 -9.30215 7977 ft 278 kts 204°
2026-05-06 20:42 38.92934 -9.31205 7972 ft 279 kts 204°
2026-05-06 20:43 38.91158 -9.32195 7976 ft 279 kts 204°
2026-05-06 20:43 38.89381 -9.33185 7975 ft 278 kts 204°
2026-05-06 20:43 38.87605 -9.34174 7974 ft 278 kts 204°
2026-05-06 20:43 38.85829 -9.35158 7975 ft 278 kts 204°
2026-05-06 20:44 38.84056 -9.36144 7975 ft 278 kts 204°
2026-05-06 20:44 38.82279 -9.37137 7975 ft 279 kts 204°
2026-05-06 20:44 38.80504 -9.38125 7974 ft 278 kts 204°
2026-05-06 20:44 38.78725 -9.39115 7981 ft 278 kts 204°
2026-05-06 20:45 38.76948 -9.40099 7978 ft 278 kts 204°
2026-05-06 20:45 38.75173 -9.41085 7979 ft 278 kts 204°
2026-05-06 20:45 38.73399 -9.42073 7978 ft 278 kts 204°
2026-05-06 20:45 38.71625 -9.43062 7979 ft 278 kts 204°
2026-05-06 20:46 38.69853 -9.44046 7978 ft 277 kts 204°
2026-05-06 20:46 38.68082 -9.45024 7978 ft 277 kts 204°
2026-05-06 20:46 38.66310 -9.45924 7934 ft 277 kts 195°
2026-05-06 20:46 38.64413 -9.46079 7533 ft 276 kts 171°
2026-05-06 20:47 38.62636 -9.45206 7165 ft 275 kts 147°
2026-05-06 20:47 38.61284 -9.43499 6795 ft 275 kts 123°
2026-05-06 20:47 38.60587 -9.41251 6430 ft 274 kts 100°
2026-05-06 20:47 38.60390 -9.38845 6041 ft 272 kts 96°
2026-05-06 20:48 38.60211 -9.36448 5645 ft 268 kts 95°
2026-05-06 20:48 38.60036 -9.34125 5260 ft 257 kts 95°
2026-05-06 20:48 38.59866 -9.31903 4897 ft 247 kts 94°
2026-05-06 20:48 38.59700 -9.29755 4511 ft 240 kts 93°
2026-05-06 20:49 38.59550 -9.27661 4146 ft 232 kts 89°
2026-05-06 20:49 38.59754 -9.25710 3976 ft 213 kts 70°
2026-05-06 20:49 38.60363 -9.24098 3835 ft 191 kts 49°
2026-05-06 20:49 38.61211 -9.22900 3619 ft 173 kts 33°
2026-05-06 20:50 38.62184 -9.22103 3422 ft 160 kts 20°
2026-05-06 20:50 38.63182 -9.21569 3236 ft 155 kts 18°
2026-05-06 20:50 38.64182 -9.21037 3032 ft 155 kts 18°
2026-05-06 20:50 38.65174 -9.20509 2821 ft 154 kts 18°
2026-05-06 20:51 38.66153 -9.19987 2634 ft 147 kts 19°
2026-05-06 20:51 38.67051 -9.19507 2429 ft 135 kts 18°
2026-05-06 20:51 38.67913 -9.19048 2246 ft 133 kts 18°
2026-05-06 20:51 38.68752 -9.18601 2069 ft 129 kts 17°
2026-05-06 20:52 38.69575 -9.18163 1890 ft 130 kts 17°
2026-05-06 20:52 38.70414 -9.17716 1721 ft 128 kts 17°
2026-05-06 20:52 38.71242 -9.17275 1536 ft 130 kts 18°
2026-05-06 20:52 38.72072 -9.16832 1369 ft 129 kts 18°
2026-05-06 20:53 38.72895 -9.16392 1184 ft 128 kts 18°
2026-05-06 20:53 38.73713 -9.15956 1006 ft 130 kts 18°
2026-05-06 20:53 38.74552 -9.15507 826 ft 128 kts 17°
2026-05-06 20:53 38.75386 -9.15063 658 ft 131 kts 19°
2026-05-06 20:54 38.76219 -9.14616 461 ft 131 kts 15°
2026-05-06 20:54 38.77035 -9.14174 360 ft 120 kts 16°
2026-05-06 20:54 38.77696 -9.13827 363 ft 79 kts 23°
2026-05-06 20:54 38.78062 -9.13632 366 ft 46 kts 23°
2026-05-06 20:55 38.78290 -9.13456 365 ft 27 kts 50°
2026-05-06 20:55 38.78375 -9.13297 363 ft 9 kts 105°
2026-05-06 20:55 38.78294 -9.13280 362 ft 20 kts 194°
2026-05-06 20:55 38.78201 -9.13325 358 ft 11 kts 202°
2026-05-06 20:56 38.78132 -9.13361 359 ft 10 kts 202°
2026-05-06 20:56 38.78044 -9.13406 358 ft 22 kts 197°
2026-05-06 20:56 38.77853 -9.13370 348 ft 31 kts 168°
2026-05-06 20:56 38.77672 -9.13322 336 ft 22 kts 173°
2026-05-06 20:57 38.77525 -9.13304 338 ft 21 kts 168°
2026-05-06 20:57 38.77389 -9.13269 338 ft 19 kts 169°
2026-05-06 20:57 38.77261 -9.13240 338 ft 18 kts 168°
2026-05-06 20:57 38.77198 -9.13193 335 ft 9 kts 96°
2026-05-06 20:58 38.77206 -9.13144 333 ft 2 kts 78°
2026-05-06 20:58 38.77207 -9.13138 333 ft 0 kts 78°